Powrót do katalogu

FENGYUN 1C DEB

AktywnyPO
NORAD 31443·DEBRIS·🇨🇳 China

Wystrzelony May 10, 1999 z Taiyuan Satellite Launch Center

Loading…

Następne Przeloty (najbliższe 24 godziny)

TLE

ŚwieżeSource: Space-Track

Epoka: Sep 14, 2026, 13:52 UTC

1 31443U 99025BUF 26257.57781717  .00002304  00000-0  47431-3 0  9996
2 31443  99.2281  28.0736 0183013 355.6728   4.2874 14.51711648709409

Śledź FENGYUN 1C DEB w czasie rzeczywistym z AllMySat

Download on the App Store